星链-11601 (STARLINK-11601)

导读

STARLINK-11601是美国SpaceX星链星座的一颗运营卫星,于2025年2月27日从美国佛罗里达州空军东部试验场发射。它运行在近地轨道,平均高度约363.4公里,轨道倾角43.000°,轨道周期约91.666分钟,目前状态为正常运行,属于星链星座全球卫星互联网组网的组成部分,为全球提供低延迟宽带互联网接入服务。

基本信息
目录编号:
63110
目录名称:
STARLINK-11601
国际标识:
2025-039G
轨道中心:
EARTH
卫星名称:
星链-11601
卫星全名:
星链-11601 (STARLINK-11601)
卫星状态:
在轨 (已飞行472 天)
发射日期:
2025-02-27 UTC
国别 :
美国 (US)
星等 :
--
轨道信息
数据来源 国际轨道数据
星历时间: 2026-06-14T08:00:02+0800
17小时前
查看轨道信息
半长轴: 6734.614km
偏心率: 0.0001504
轨道倾角: 43.001°
近地点辐角 273.128°
升交点赤经 16.311°
平近点角 53.120°
近地点: 355.464km
远地点: 357.49km
周期: 91.670分钟
每日圈数: 15.708464
详细信息
固有亮度:
5
最大亮度:
2.5
卫星平台:
Starlink V1.0
覆盖范围:
全球
运营商:
太空探索技术公司
运营商所在国:
美国
制造商(研发单位):
太空探索技术公司
制造商所在国:
美国
使用方式:
暂无
卫星简介
Starlink 计划是 SpaceX 推出的全球卫星互联网项目,通过发射低轨道卫星,为全球尤其是偏远地区提供高速、低延迟的互联网服务。自 2019 年起,Starlink 已部署数千颗卫星,旨在缩小全球数字鸿沟,推动互联网普及。该项目还为军事、航空等行业提供通信支持,带来广泛经济效益。
2D轨道图
3D轨道图
轨道高度分析图
轨道倾角分析图
轨道综合分析图
查看轨道综合分析图